When you browse on this site, cookies collect data to enhance your experience and personalize the content and advertising you see.
Visit our Privacy Policy to learn more. By continuing to use the site, you agree to this use of cookies and data.
  • In Hungary
  • List of Countries
  • For 7 days
  • Water Temperature
  • Weather Map
  • News
  • Weather Widgets
  • user-avatar
    Login

    Hourly Weather Krasnoe

    Today, 21 October, Monday

    Time Temperature Precipitation Wind Pressure Humidity
    00:00 +13°C° 0 mm 4 mps 741 mmHg 57%
    01:00 +12°C° 0 mm 4 mps 741 mmHg 59%
    02:00 +12°C° 0 mm 4 mps 741 mmHg 61%
    03:00 +11°C° 0 mm 4 mps 741 mmHg 63%
    04:00 +11°C° 0 mm 4 mps 741 mmHg 65%
    05:00 +11°C° 0 mm 4 mps 741 mmHg 67%
    06:00 +10°C° 0 mm 4 mps 741 mmHg 69%
    07:00 +10°C° 0 mm 5 mps 742 mmHg 67%
    08:00 +13°C° 0 mm 5 mps 742 mmHg 64%
    09:00 +14°C° 0 mm 6 mps 742 mmHg 62%
    10:00 +15°C° 0 mm 6 mps 742 mmHg 58%
    11:00 +16°C° 0 mm 6 mps 742 mmHg 54%
    12:00 +19°C° 0 mm 6 mps 742 mmHg 50%
    13:00 +19°C° 0 mm 6 mps 742 mmHg 50%
    14:00 +19°C° 0 mm 6 mps 741 mmHg 50%
    15:00 +19°C° 0 mm 6 mps 741 mmHg 50%
    16:00 +17°C° 0 mm 5 mps 741 mmHg 53%
    17:00 +16°C° 0 mm 5 mps 741 mmHg 56%
    18:00 +14°C° 0 mm 4 mps 741 mmHg 59%
    19:00 +14°C° 0 mm 4 mps 741 mmHg 61%
    20:00 +13°C° 0 mm 4 mps 741 mmHg 63%
    21:00 +13°C° 0 mm 4 mps 741 mmHg 65%
    22:00 +12°C° 0 mm 4 mps 741 mmHg 68%
    23:00 +12°C° 0 mm 4 mps 741 mmHg 71%

    Tomorrow, 22 October, Tuesday

    Time Temperature Precipitation Wind Pressure Humidity
    00:00 +11°C° 0 mm 4 mps 741 mmHg 75%
    01:00 +10°C° 0 mm 4 mps 740 mmHg 78%
    02:00 +10°C° 0 mm 4 mps 740 mmHg 82%
    03:00 +10°C° 0 mm 3 mps 740 mmHg 85%
    04:00 +9°C° 0 mm 3 mps 740 mmHg 88%
    05:00 +9°C° 0 mm 3 mps 740 mmHg 90%
    06:00 +8°C° 0 mm 3 mps 740 mmHg 93%
    07:00 +10°C° 0 mm 3 mps 741 mmHg 87%
    08:00 +11°C° 0 mm 4 mps 741 mmHg 82%
    09:00 +12°C° 0 mm 4 mps 741 mmHg 76%
    10:00 +13°C° 0 mm 4 mps 741 mmHg 69%
    11:00 +15°C° 0 mm 5 mps 741 mmHg 61%
    12:00 +16°C° 0 mm 5 mps 741 mmHg 54%
    13:00 +17°C° 0 mm 5 mps 740 mmHg 52%
    14:00 +18°C° 0 mm 4 mps 740 mmHg 50%
    15:00 +19°C° 0 mm 4 mps 740 mmHg 47%
    16:00 +17°C° 0 mm 4 mps 740 mmHg 52%
    17:00 +16°C° 0 mm 3 mps 740 mmHg 56%
    18:00 +14°C° 0 mm 3 mps 740 mmHg 60%
    19:00 +14°C° 0 mm 3 mps 740 mmHg 61%
    20:00 +13°C° 0 mm 3 mps 740 mmHg 63%
    21:00 +13°C° 0 mm 3 mps 740 mmHg 64%
    22:00 +12°C° 0 mm 3 mps 740 mmHg 67%
    23:00 +11°C° 0 mm 3 mps 740 mmHg 69%

    Day after tomorrow, 23 October, Wednesday

    Time Temperature Precipitation Wind Pressure Humidity
    00:00 +12°C° 0 mm 2 mps 740 mmHg 71%
    01:00 +10°C° 0 mm 2 mps 740 mmHg 73%
    02:00 +10°C° 0 mm 2 mps 740 mmHg 76%
    03:00 +9°C° 0 mm 2 mps 740 mmHg 78%
    04:00 +9°C° 0 mm 2 mps 740 mmHg 80%
    05:00 +9°C° 0 mm 2 mps 740 mmHg 82%
    06:00 +9°C° 0 mm 2 mps 740 mmHg 84%
    07:00 +10°C° 0 mm 2 mps 740 mmHg 78%
    08:00 +11°C° 0 mm 3 mps 741 mmHg 73%
    09:00 +13°C° 0 mm 3 mps 741 mmHg 67%
    10:00 +14°C° 0 mm 4 mps 741 mmHg 60%
    11:00 +15°C° 0 mm 4 mps 741 mmHg 53%
    12:00 +18°C° 0 mm 4 mps 740 mmHg 46%
    13:00 +18°C° 0 mm 4 mps 740 mmHg 44%
    14:00 +17°C° 0 mm 5 mps 740 mmHg 42%
    15:00 +17°C° 0 mm 5 mps 740 mmHg 40%
    16:00 +17°C° 0 mm 4 mps 740 mmHg 44%
    17:00 +15°C° 0 mm 4 mps 740 mmHg 48%
    18:00 +13°C° 0 mm 3 mps 740 mmHg 51%
    19:00 +12°C° 0 mm 3 mps 740 mmHg 53%
    20:00 +12°C° 0 mm 3 mps 740 mmHg 55%
    21:00 +11°C° 0 mm 4 mps 740 mmHg 57%
    22:00 +11°C° 0 mm 3 mps 740 mmHg 58%
    23:00 +10°C° 0 mm 3 mps 740 mmHg 59%

    24 October, Thursday

    Time Temperature Precipitation Wind Pressure Humidity
    00:00 +10°C° 0 mm 3 mps 740 mmHg 61%
    01:00 +9°C° 0 mm 3 mps 740 mmHg 62%
    02:00 +9°C° 0 mm 3 mps 740 mmHg 63%
    03:00 +9°C° 0 mm 3 mps 739 mmHg 64%
    04:00 +8°C° 0 mm 3 mps 740 mmHg 65%
    05:00 +8°C° 0 mm 3 mps 740 mmHg 66%
    06:00 +8°C° 0 mm 3 mps 740 mmHg 67%
    07:00 +9°C° 0 mm 3 mps 740 mmHg 62%
    08:00 +10°C° 0 mm 4 mps 740 mmHg 57%
    09:00 +12°C° 0 mm 4 mps 740 mmHg 52%
    10:00 +13°C° 0 mm 5 mps 740 mmHg 47%
    11:00 +14°C° 0 mm 5 mps 740 mmHg 42%
    12:00 +16°C° 0 mm 5 mps 739 mmHg 37%
    13:00 +16°C° 0 mm 5 mps 739 mmHg 36%
    14:00 +16°C° 0 mm 6 mps 739 mmHg 36%
    15:00 +17°C° 0 mm 6 mps 739 mmHg 35%
    16:00 +15°C° 0 mm 5 mps 739 mmHg 41%
    17:00 +14°C° 0 mm 4 mps 738 mmHg 46%
    18:00 +12°C° 0 mm 4 mps 738 mmHg 52%
    19:00 +12°C° 0 mm 4 mps 738 mmHg 55%
    20:00 +11°C° 0 mm 4 mps 738 mmHg 57%
    21:00 +11°C° 0 mm 4 mps 739 mmHg 59%
    22:00 +10°C° 0 mm 4 mps 738 mmHg 61%
    23:00 +10°C° 0 mm 4 mps 738 mmHg 64%

    25 October, Friday

    Time Temperature Precipitation Wind Pressure Humidity
    00:00 +8°C° 0 mm 4 mps 738 mmHg 66%
    01:00 +9°C° 0 mm 3 mps 738 mmHg 69%
    02:00 +9°C° 0 mm 3 mps 738 mmHg 72%
    03:00 +8°C° 0 mm 3 mps 738 mmHg 76%
    04:00 +8°C° 0 mm 3 mps 738 mmHg 79%
    05:00 +7°C° 0 mm 3 mps 738 mmHg 82%
    06:00 +7°C° 0 mm 3 mps 738 mmHg 85%
    07:00 +8°C° 0 mm 3 mps 738 mmHg 81%
    08:00 +10°C° 0 mm 4 mps 738 mmHg 77%
    09:00 +10°C° 0 mm 5 mps 738 mmHg 73%
    10:00 +12°C° 0 mm 5 mps 738 mmHg 69%
    11:00 +14°C° 0 mm 5 mps 738 mmHg 65%
    12:00 +16°C° 0 mm 5 mps 738 mmHg 60%
    13:00 +16°C° 0 mm 5 mps 738 mmHg 59%
    14:00 +17°C° 0 mm 5 mps 738 mmHg 58%
    15:00 +17°C° 0 mm 5 mps 738 mmHg 57%
    16:00 +17°C° 0 mm 4 mps 738 mmHg 61%
    17:00 +14°C° 0 mm 4 mps 738 mmHg 64%
    18:00 +13°C° 0 mm 3 mps 738 mmHg 67%
    19:00 +13°C° 0 mm 3 mps 738 mmHg 69%
    20:00 +12°C° 0 mm 3 mps 738 mmHg 70%
    21:00 +11°C° 0 mm 3 mps 738 mmHg 71%
    22:00 +11°C° 0 mm 3 mps 737 mmHg 71%
    23:00 +11°C° 0 mm 3 mps 737 mmHg 71%

    26 October, Saturday

    Time Temperature Precipitation Wind Pressure Humidity
    00:00 +10°C° 0 mm 3 mps 737 mmHg 72%
    01:00 +10°C° 0 mm 3 mps 737 mmHg 74%
    02:00 +9°C° 0 mm 3 mps 737 mmHg 75%
    03:00 +9°C° 0 mm 2 mps 738 mmHg 77%
    04:00 +9°C° 0 mm 2 mps 738 mmHg 81%
    05:00 +9°C° 0 mm 2 mps 738 mmHg 85%
    06:00 +8°C° 0 mm 2 mps 738 mmHg 89%
    07:00 +9°C° 0 mm 2 mps 738 mmHg 87%
    08:00 +11°C° 0 mm 3 mps 738 mmHg 84%
    09:00 +12°C° 0 mm 3 mps 738 mmHg 82%
    10:00 +13°C° 0 mm 4 mps 739 mmHg 78%
    11:00 +14°C° 0 mm 4 mps 739 mmHg 74%
    12:00 +15°C° 0 mm 4 mps 739 mmHg 70%
    13:00 +17°C° 0 mm 4 mps 739 mmHg 68%
    14:00 +17°C° 0 mm 4 mps 738 mmHg 67%
    15:00 +17°C° 0 mm 4 mps 738 mmHg 66%
    16:00 +15°C° 0 mm 4 mps 738 mmHg 70%
    17:00 +14°C° 0 mm 3 mps 738 mmHg 75%
    18:00 +13°C° 0 mm 3 mps 738 mmHg 79%
    19:00 +14°C° 0 mm 2 mps 738 mmHg 83%
    20:00 +13°C° 0 mm 2 mps 738 mmHg 86%
    21:00 +13°C° 0 mm 1 mps 738 mmHg 89%
    22:00 +12°C° 0 mm 1 mps 738 mmHg 90%
    23:00 +12°C° 0 mm 1 mps 738 mmHg 91%

    27 October, Sunday

    Time Temperature Precipitation Wind Pressure Humidity
    00:00 +12°C° 0 mm 1 mps 738 mmHg 91%
    01:00 +12°C° 0 mm 1 mps 738 mmHg 91%
    02:00 +11°C° 0 mm 0 mps 738 mmHg 91%
    03:00 +10°C° 0 mm 0 mps 738 mmHg 90%
    04:00 +10°C° 0 mm 0 mps 738 mmHg 90%
    05:00 +10°C° 0 mm 0 mps 738 mmHg 91%
    06:00 +10°C° 0 mm 0 mps 738 mmHg 91%
    07:00 +11°C° 0 mm 0 mps 738 mmHg 86%
    08:00 +13°C° 0 mm 1 mps 738 mmHg 82%
    09:00 +14°C° 0 mm 1 mps 738 mmHg 77%
    10:00 +16°C° 0 mm 1 mps 738 mmHg 71%
    11:00 +18°C° 0 mm 1 mps 738 mmHg 65%
    12:00 +20°C° 0 mm 1 mps 738 mmHg 59%
    13:00 +20°C° 0 mm 1 mps 738 mmHg 56%
    14:00 +21°C° 0 mm 1 mps 738 mmHg 54%
    15:00 +21°C° 0 mm 1 mps 737 mmHg 52%
    16:00 +20°C° 0 mm 1 mps 737 mmHg 57%
    17:00 +18°C° 0 mm 1 mps 737 mmHg 62%
    18:00 +15°C° 0 mm 0 mps 737 mmHg 67%
    19:00 +15°C° 0 mm 0 mps 737 mmHg 69%
    20:00 +14°C° 0 mm 0 mps 737 mmHg 71%
    21:00 +14°C° 0 mm 0 mps 737 mmHg 74%
    22:00 +13°C° 0 mm 0 mps 737 mmHg 75%
    23:00 +14°C° 0 mm 1 mps 737 mmHg 76%
    Show more